Location: Unspecified
(43.9500°N, 64.7900°W)
Time: 00:36:46
(UTC-03:00)

Envisat - Visible Passes

Search period start: 19 August 2018 00:00
Search period end: 29 August 2018 00:00
Orbit: 764 x 766 km, 98.2° (Epoch: 18 August)

Date Brightness Start Highest point End Pass type
(mag) Time Alt. Az. Time Alt. Az. Time Alt. Az.
19 Aug 5.9 21:58:52 10° WSW 22:00:58 12° W 22:03:05 10° WNW visible
20 Aug 5.1 21:19:33 10° SSW 21:23:50 27° W 21:28:09 10° NW visible
21 Aug 3.7 20:41:55 10° S 20:46:54 59° W 20:51:57 10° NNW visible
22 Aug 5.7 21:46:36 10° SW 21:49:40 16° W 21:52:44 10° NW visible
23 Aug 4.7 21:08:00 10° SSW 21:12:35 34° W 21:17:12 10° NNW visible
24 Aug 3.3 20:30:39 10° S 20:35:43 74° WSW 20:40:49 10° NNW visible
25 Aug 5.5 21:34:41 10° SW 21:38:22 20° W 21:42:04 10° NW visible
26 Aug 4.3 20:56:33 10° S 21:01:21 42° W 21:06:12 10° NNW visible
27 Aug 6.0 22:02:45 10° WSW 22:04:15 11° W 22:05:46 10° WNW visible
28 Aug 5.2 21:22:57 10° SSW 21:27:06 25° W 21:31:15 10° NW visible
